Location: Unspecified
(17.6330°N, 0.0000°E)
Time: 03:26:26
(UTC+00:00)

S-56A Canister/Altair - Pass Details

Date: 01 July 2019
Orbit: 633 x 2499 km, 38.9° (Epoch: 13 October)

Event Time Altitude Azimuth Distance (km) Brightness Sun altitude
Rises 12:30:54 0° 255° (WSW) 6,173 12.2 81.6°
Reaches altitude 10° 12:35:20 10° 261° (W) 5,134 12.0 80.8°
Maximum altitude 12:49:07 45° 330° (NNW) 2,738 11.4 78.1°
Drops below altitude 10° 12:59:45 10° 40° (NE) 3,988 11.3 75.8°
Sets 13:02:46 0° 47° (NE) 4,733 11.5 75.2°
